{"data":{"norad_id":57945,"intl_designator":"2023-148L","name":"STARLINK-30705","alt_names":[],"object_type":"PAYLOAD","status":"ACTIVE","operator":null,"country":"US","launch_date":"2023-09-25","launch_site_code":"AFWTR","launch_vehicle":null,"mission":null,"orbit_class":"UNKNOWN","rcs_meters":null,"size_class":null,"mass_kg":null,"dimensions":null,"purposes":["comms"],"wikipedia_slug":null,"has_3d_model":false,"image_url":null,"decayed_at":null,"tle_current":{"epoch":"2026-09-20T12:29:51.345024Z","epoch_age_seconds":135858,"freshness":"FRESH","line1":"1 57945U 23148L   26263.52073316 -.00000589  00000+0 -62848-5 0  9990","line2":"2 57945  53.1604 195.6469 0001545  91.6637 268.4543 15.34377419168302","mean_motion":15.34377419,"eccentricity":0.0001545,"inclination_deg":53.1604,"raan_deg":195.6469,"arg_perigee_deg":91.6637,"mean_anomaly_deg":268.4543,"bstar":-6.2848e-6,"rev_number":16830,"period_min":93.849139212339,"perigee_km":461.71343633435,"apogee_km":463.82727670752,"semimajor_km":6840.9073565209,"source":"CELESTRAK","updated_at":"2026-09-21T09:00:33.746206Z"}}}